| time (UTC) | temp C | wind direction | speed KPH | gust KPH | rain 1hr cm | rain 24hr cm | rain mn cm | humidity % | barometer mb |
| 20260509153949 | 14 | 213 | 6.4 | 16.1 | 0.00 | 0.00 | 0.00 | 30 | 933.4 |
| 20260509153446 | 14 | 255 | 8.0 | 12.9 | 0.00 | 0.00 | 0.00 | 30 | 933.5 |
| 20260509152943 | 13 | 33 | 0.0 | 4.8 | 0.00 | 0.00 | 0.00 | 30 | 933.4 |
| 20260509152438 | 13 | 242 | 14.5 | 16.1 | 0.00 | 0.00 | 0.00 | 30 | 933.5 |
| 20260509151936 | 13 | 343 | 12.9 | 16.1 | 0.00 | 0.00 | 0.00 | 30 | 933.5 |
| 20260509151432 | 13 | 12 | 0.0 | 8.0 | 0.00 | 0.00 | 0.00 | 31 | 933.6 |
| 20260509150930 | 13 | 301 | 4.8 | 14.5 | 0.00 | 0.00 | 0.00 | 31 | 933.5 |
| 20260509150427 | 13 | 260 | 8.0 | 11.3 | 0.00 | 0.00 | 0.00 | 31 | 933.5 |
| 20260509145926 | 12 | 125 | 3.2 | 8.0 | 0.00 | 0.00 | 0.00 | 33 | 933.7 |
| 20260509145426 | 12 | 253 | 9.7 | 16.1 | 0.00 | 0.00 | 0.00 | 31 | 933.4 |
| 20260509144921 | 12 | 216 | 6.4 | 14.5 | 0.00 | 0.00 | 0.00 | 32 | 933.5 |
| 20260509144418 | 12 | 263 | 1.6 | 11.3 | 0.00 | 0.00 | 0.00 | 33 | 933.3 |
| 20260509143915 | 12 | 235 | 4.8 | 11.3 | 0.00 | 0.00 | 0.00 | 33 | 933.1 |
| 20260509143413 | 12 | 226 | 4.8 | 12.9 | 0.00 | 0.00 | 0.00 | 34 | 933.2 |
| 20260509142909 | 12 | 265 | 6.4 | 12.9 | 0.00 | 0.00 | 0.00 | 37 | 933.2 |
| 20260509142406 | 11 | 237 | 3.2 | 11.3 | 0.00 | 0.00 | 0.00 | 39 | 933.3 |
| 20260509141901 | 11 | 277 | 1.6 | 9.7 | 0.00 | 0.00 | 0.00 | 43 | 933.1 |
| 20260509141358 | 11 | 244 | 6.4 | 11.3 | 0.00 | 0.00 | 0.00 | 44 | 933.1 |
| 20260509140855 | 10 | 20 | 0.0 | 8.0 | 0.00 | 0.00 | 0.00 | 45 | 933.2 |
| 20260509140352 | 10 | 0 | 3.2 | 4.8 | 0.00 | 0.00 | 0.00 | 48 | 933.3 |
| 20260509135850 | 9 | 4 | 3.2 | 4.8 | 0.00 | 0.00 | 0.00 | 48 | 933.5 |
| 20260509135347 | 9 | 33 | 1.6 | 3.2 | 0.00 | 0.00 | 0.00 | 49 | 933.4 |
| 20260509134844 | 9 | 60 | 1.6 | 1.6 | 0.00 | 0.00 | 0.00 | 48 | 933.1 |
| 20260509134341 | 8 | 67 | 1.6 | 3.2 | 0.00 | 0.00 | 0.00 | 48 | 933.3 |
| 20260509133838 | 7 | 60 | 0.0 | 3.2 | 0.00 | 0.00 | 0.00 | 56 | 933.2 |
| 20260509133335 | 7 | 68 | 3.2 | 3.2 | 0.00 | 0.00 | 0.00 | 58 | 933.1 |
| 20260509132834 | 7 | 72 | 3.2 | 4.8 | 0.00 | 0.00 | 0.00 | 58 | 933.3 |
| 20260509132332 | 8 | 26 | 1.6 | 3.2 | 0.00 | 0.00 | 0.00 | 48 | 933.2 |
| 20260509131828 | 8 | 33 | 1.6 | 1.6 | 0.00 | 0.00 | 0.00 | 49 | 933.1 |
| 20260509131325 | 8 | 34 | 0.0 | 1.6 | 0.00 | 0.00 | 0.00 | 49 | 933.1 |
| 20260509130821 | 7 | 166 | 3.2 | 4.8 | 0.00 | 0.00 | 0.00 | 54 | 933.1 |
| 20260509130317 | 7 | 67 | 0.0 | 3.2 | 0.00 | 0.00 | 0.00 | 51 | 933.1 |
| 20260509125814 | 6 | 68 | 0.0 | 3.2 | 0.00 | 0.00 | 0.00 | 55 | 932.6 |
| 20260509125310 | 6 | 127 | 4.8 | 9.7 | 0.00 | 0.00 | 0.00 | 55 | 932.7 |
| 20260509124807 | 6 | 80 | 0.0 | 0.0 | 0.00 | 0.00 | 0.00 | 54 | 932.5 |
| 20260509124303 | 5 | 103 | 0.0 | 0.0 | 0.00 | 0.00 | 0.00 | 57 | 932.4 |
| 20260509123802 | 5 | 109 | 0.0 | 0.0 | 0.00 | 0.00 | 0.00 | 59 | 932.3 |
| 20260509123259 | 5 | 109 | 0.0 | 0.0 | 0.00 | 0.00 | 0.00 | 58 | 932.3 |
| 20260509122754 | 6 | 90 | 3.2 | 8.0 | 0.00 | 0.00 | 0.00 | 54 | 932.1 |
| 20260509122252 | 6 | 202 | 0.0 | 8.0 | 0.00 | 0.00 | 0.00 | 51 | 931.8 |
| 20260509121748 | 6 | 210 | 0.0 | 3.2 | 0.00 | 0.00 | 0.00 | 52 | 931.9 |
| 20260509121245 | 6 | 274 | 0.0 | 4.8 | 0.00 | 0.00 | 0.00 | 53 | 931.9 |
| 20260509120744 | 5 | 356 | 0.0 | 8.0 | 0.00 | 0.00 | 0.00 | 57 | 931.7 |
| 20260509120241 | 5 | 10 | 0.0 | 0.0 | 0.00 | 0.00 | 0.00 | 60 | 931.8 |
| 20260509115739 | 5 | 54 | 0.0 | 0.0 | 0.00 | 0.00 | 0.00 | 61 | 931.8 |
| 20260509115235 | 5 | 56 | 0.0 | 0.0 | 0.00 | 0.00 | 0.00 | 60 | 931.7 |
| 20260509114734 | 6 | 17 | 0.0 | 0.0 | 0.00 | 0.00 | 0.00 | 58 | 931.6 |
| 20260509114232 | 5 | 256 | 0.0 | 0.0 | 0.00 | 0.00 | 0.00 | 60 | 931.6 |
| 20260509113731 | 4 | 82 | 0.0 | 0.0 | 0.00 | 0.00 | 0.00 | 67 | 931.6 |
| 20260509113228 | 5 | 68 | 0.0 | 0.0 | 0.00 | 0.00 | 0.00 | 65 | 931.3 |
| 20260509112724 | 6 | 43 | 0.0 | 0.0 | 0.00 | 0.00 | 0.00 | 60 | 931.2 |
| 20260509112222 | 6 | 342 | 0.0 | 9.7 | 0.00 | 0.00 | 0.00 | 61 | 931.5 |
| 20260509111718 | 5 | 321 | 1.6 | 8.0 | 0.00 | 0.00 | 0.00 | 64 | 931.5 |
| 20260509111215 | 5 | 299 | 0.0 | 4.8 | 0.00 | 0.00 | 0.00 | 65 | 931.6 |
| 20260509110713 | 5 | 315 | 0.0 | 0.0 | 0.00 | 0.00 | 0.00 | 65 | 931.7 |
| 20260509110209 | 5 | 246 | 0.0 | 1.6 | 0.00 | 0.00 | 0.00 | 65 | 931.3 |
| 20260509105708 | 5 | 43 | 0.0 | 0.0 | 0.00 | 0.00 | 0.00 | 69 | 931.6 |
| 20260509105204 | 4 | 80 | 0.0 | 3.2 | 0.00 | 0.00 | 0.00 | 69 | 931.2 |
| 20260509104702 | 4 | 78 | 0.0 | 0.0 | 0.00 | 0.00 | 0.00 | 69 | 931.5 |
| 20260509104158 | 5 | 74 | 0.0 | 0.0 | 0.00 | 0.00 | 0.00 | 69 | 931.3 |
| 20260509103656 | 5 | 53 | 0.0 | 0.0 | 0.00 | 0.00 | 0.00 | 68 | 931.2 |
| 20260509103154 | 5 | 214 | 1.6 | 8.0 | 0.00 | 0.00 | 0.00 | 68 | 931.3 |
| 20260509102652 | 4 | 3 | 0.0 | 0.0 | 0.00 | 0.00 | 0.00 | 73 | 931.5 |
| 20260509102148 | 4 | 25 | 0.0 | 0.0 | 0.00 | 0.00 | 0.00 | 73 | 931.2 |
| 20260509101644 | 4 | 24 | 0.0 | 3.2 | 0.00 | 0.00 | 0.00 | 74 | 931.2 |
| 20260509101141 | 4 | 17 | 3.2 | 3.2 | 0.00 | 0.00 | 0.00 | 74 | 931.3 |
| 20260509100639 | 3 | 13 | 0.0 | 8.0 | 0.00 | 0.00 | 0.00 | 76 | 931.2 |
| 20260509100136 | 3 | 19 | 0.0 | 0.0 | 0.00 | 0.00 | 0.00 | 79 | 931.1 |
| 20260509095632 | 2 | 48 | 1.6 | 4.8 | 0.00 | 0.00 | 0.00 | 79 | 931.2 |
| 20260509095130 | 3 | 49 | 0.0 | 1.6 | 0.00 | 0.00 | 0.00 | 77 | 931.0 |
| 20260509094626 | 3 | 75 | 0.0 | 0.0 | 0.00 | 0.00 | 0.00 | 77 | 931.2 |
| 20260509094123 | 3 | 76 | 0.0 | 0.0 | 0.00 | 0.00 | 0.00 | 76 | 931.6 |
| 20260509093622 | 3 | 89 | 0.0 | 0.0 | 0.00 | 0.00 | 0.00 | 75 | 931.3 |
| 20260509093118 | 3 | 123 | 0.0 | 0.0 | 0.00 | 0.00 | 0.00 | 75 | 931.1 |
| 20260509092616 | 3 | 149 | 0.0 | 0.0 | 0.00 | 0.00 | 0.00 | 76 | 931.1 |
| 20260509092115 | 3 | 88 | 0.0 | 0.0 | 0.00 | 0.00 | 0.00 | 76 | 931.2 |
| 20260509091612 | 4 | 39 | 4.8 | 4.8 | 0.00 | 0.00 | 0.00 | 75 | 931.1 |
| 20260509091108 | 4 | 36 | 0.0 | 0.0 | 0.00 | 0.00 | 0.00 | 75 | 931.1 |
| 20260509090605 | 4 | 90 | 0.0 | 0.0 | 0.00 | 0.00 | 0.00 | 74 | 931.1 |
| 20260509090057 | 4 | 154 | 6.4 | 11.3 | 0.00 | 0.00 | 0.00 | 74 | 931.2 |
| 20260509085554 | 5 | 152 | 1.6 | 4.8 | 0.00 | 0.00 | 0.00 | 72 | 931.3 |
| 20260509085050 | 5 | 110 | 0.0 | 0.0 | 0.00 | 0.00 | 0.00 | 73 | 931.1 |
| 20260509084547 | 4 | 106 | 3.2 | 9.7 | 0.00 | 0.00 | 0.00 | 74 | 931.3 |
| 20260509084045 | 5 | 120 | 0.0 | 8.0 | 0.00 | 0.00 | 0.00 | 74 | 931.3 |
| 20260509083542 | 5 | 151 | 6.4 | 12.9 | 0.00 | 0.00 | 0.00 | 73 | 931.1 |
| 20260509083038 | 5 | 130 | 0.0 | 4.8 | 0.00 | 0.00 | 0.00 | 72 | 931.2 |
| 20260509082536 | 5 | 137 | 4.8 | 8.0 | 0.00 | 0.00 | 0.00 | 71 | 931.3 |
| 20260509082033 | 5 | 131 | 0.0 | 8.0 | 0.00 | 0.00 | 0.00 | 71 | 931.1 |
| 20260509081530 | 5 | 99 | 0.0 | 0.0 | 0.00 | 0.00 | 0.00 | 70 | 931.2 |
| 20260509081027 | 5 | 46 | 0.0 | 8.0 | 0.00 | 0.00 | 0.00 | 69 | 931.2 |
| 20260509080525 | 6 | 127 | 0.0 | 0.0 | 0.00 | 0.00 | 0.00 | 69 | 931.2 |
| 20260509080023 | 5 | 106 | 0.0 | 0.0 | 0.00 | 0.00 | 0.00 | 69 | 931.2 |
| 20260509075520 | 6 | 89 | 0.0 | 0.0 | 0.00 | 0.00 | 0.00 | 69 | 931.1 |
| 20260509075018 | 6 | 127 | 0.0 | 0.0 | 0.00 | 0.00 | 0.00 | 69 | 931.1 |
| 20260509074515 | 6 | 136 | 0.0 | 0.0 | 0.00 | 0.00 | 0.00 | 69 | 931.2 |
| 20260509074011 | 6 | 108 | 0.0 | 0.0 | 0.00 | 0.00 | 0.00 | 69 | 931.2 |
| 20260509073508 | 5 | 132 | 4.8 | 8.0 | 0.00 | 0.00 | 0.00 | 70 | 931.0 |
| 20260509073004 | 5 | 87 | 0.0 | 0.0 | 0.00 | 0.00 | 0.00 | 70 | 931.1 |
| 20260509072501 | 6 | 136 | 3.2 | 4.8 | 0.00 | 0.00 | 0.00 | 70 | 931.1 |
| 20260509071957 | 6 | 124 | 1.6 | 4.8 | 0.00 | 0.00 | 0.00 | 68 | 931.1 |
| 20260509071454 | 6 | 113 | 0.0 | 0.0 | 0.00 | 0.00 | 0.00 | 67 | 931.0 |
| 20260509070952 | 6 | 110 | 0.0 | 0.0 | 0.00 | 0.00 | 0.00 | 67 | 931.5 |
| 20260509070449 | 6 | 76 | 0.0 | 0.0 | 0.00 | 0.00 | 0.00 | 68 | 931.2 |
| 20260509065944 | 6 | 93 | 0.0 | 4.8 | 0.00 | 0.00 | 0.00 | 67 | 931.0 |
| 20260509065440 | 6 | 66 | 1.6 | 4.8 | 0.00 | 0.00 | 0.00 | 68 | 931.3 |
| 20260509064936 | 6 | 51 | 0.0 | 0.0 | 0.00 | 0.00 | 0.00 | 67 | 931.1 |
| 20260509064434 | 6 | 96 | 0.0 | 4.8 | 0.00 | 0.00 | 0.00 | 67 | 930.9 |
| 20260509063932 | 7 | 93 | 0.0 | 0.0 | 0.00 | 0.00 | 0.00 | 66 | 930.9 |
| 20260509063427 | 7 | 56 | 1.6 | 1.6 | 0.00 | 0.00 | 0.00 | 65 | 931.0 |
| 20260509062924 | 7 | 87 | 0.0 | 0.0 | 0.00 | 0.00 | 0.00 | 62 | 930.9 |
| 20260509062422 | 7 | 104 | 0.0 | 0.0 | 0.00 | 0.00 | 0.00 | 63 | 931.0 |
| 20260509061919 | 7 | 124 | 0.0 | 0.0 | 0.00 | 0.00 | 0.00 | 63 | 931.1 |
| 20260509061417 | 7 | 129 | 0.0 | 0.0 | 0.00 | 0.00 | 0.00 | 63 | 931.0 |
| 20260509060913 | 7 | 122 | 3.2 | 3.2 | 0.00 | 0.00 | 0.00 | 63 | 930.7 |
| 20260509060411 | 8 | 106 | 0.0 | 4.8 | 0.00 | 0.00 | 0.00 | 63 | 931.1 |
| 20260509055906 | 7 | 133 | 3.2 | 8.0 | 0.00 | 0.00 | 0.00 | 62 | 930.9 |
| 20260509055401 | 7 | 100 | 4.8 | 8.0 | 0.00 | 0.00 | 0.00 | 63 | 931.0 |
| 20260509054858 | 8 | 122 | 3.2 | 4.8 | 0.00 | 0.00 | 0.00 | 62 | 930.9 |
| 20260509054355 | 8 | 51 | 0.0 | 0.0 | 0.00 | 0.00 | 0.00 | 64 | 930.9 |
| 20260509053853 | 8 | 79 | 0.0 | 0.0 | 0.00 | 0.00 | 0.00 | 60 | 930.9 |
| 20260509053350 | 8 | 82 | 0.0 | 0.0 | 0.00 | 0.00 | 0.00 | 59 | 931.0 |
| 20260509052849 | 8 | 114 | 0.0 | 0.0 | 0.00 | 0.00 | 0.00 | 60 | 931.1 |
| 20260509052346 | 8 | 120 | 0.0 | 0.0 | 0.00 | 0.00 | 0.00 | 61 | 931.0 |
| 20260509051843 | 8 | 98 | 0.0 | 0.0 | 0.00 | 0.00 | 0.00 | 62 | 931.0 |
| 20260509051341 | 9 | 80 | 0.0 | 0.0 | 0.00 | 0.00 | 0.00 | 59 | 931.0 |
| 20260509050838 | 9 | 77 | 0.0 | 0.0 | 0.00 | 0.00 | 0.00 | 59 | 931.1 |
| 20260509050335 | 8 | 91 | 0.0 | 0.0 | 0.00 | 0.00 | 0.00 | 60 | 931.1 |
| 20260509045831 | 8 | 90 | 0.0 | 0.0 | 0.00 | 0.00 | 0.00 | 61 | 930.9 |
| 20260509045328 | 10 | 90 | 0.0 | 0.0 | 0.00 | 0.00 | 0.00 | 58 | 930.9 |
| 20260509044826 | 10 | 72 | 0.0 | 0.0 | 0.00 | 0.00 | 0.00 | 57 | 930.9 |
| 20260509044323 | 9 | 63 | 0.0 | 0.0 | 0.00 | 0.00 | 0.00 | 61 | 930.9 |
| 20260509043819 | 8 | 71 | 0.0 | 0.0 | 0.00 | 0.00 | 0.00 | 62 | 931.0 |
| 20260509043316 | 8 | 48 | 0.0 | 0.0 | 0.00 | 0.00 | 0.00 | 61 | 930.8 |
| 20260509042811 | 10 | 56 | 0.0 | 0.0 | 0.00 | 0.00 | 0.00 | 55 | 930.9 |
| 20260509042308 | 11 | 55 | 0.0 | 0.0 | 0.00 | 0.00 | 0.00 | 53 | 930.8 |
| 20260509041804 | 11 | 55 | 0.0 | 0.0 | 0.00 | 0.00 | 0.00 | 54 | 931.0 |
| 20260509041302 | 10 | 48 | 0.0 | 0.0 | 0.00 | 0.00 | 0.00 | 54 | 930.8 |
| 20260509040800 | 10 | 52 | 0.0 | 0.0 | 0.00 | 0.00 | 0.00 | 54 | 930.9 |
| 20260509040257 | 10 | 52 | 0.0 | 0.0 | 0.00 | 0.00 | 0.00 | 55 | 930.8 |
| 20260509035754 | 11 | 51 | 0.0 | 0.0 | 0.00 | 0.00 | 0.00 | 54 | 930.7 |
| 20260509035251 | 11 | 49 | 0.0 | 0.0 | 0.00 | 0.00 | 0.00 | 53 | 930.5 |
| 20260509034747 | 11 | 50 | 0.0 | 0.0 | 0.00 | 0.00 | 0.00 | 53 | 930.5 |
| 20260509034245 | 12 | 35 | 0.0 | 0.0 | 0.00 | 0.00 | 0.00 | 51 | 930.3 |
| 20260509033742 | 12 | 31 | 0.0 | 0.0 | 0.00 | 0.00 | 0.00 | 49 | 930.4 |
| 20260509033239 | 12 | 39 | 0.0 | 1.6 | 0.00 | 0.00 | 0.00 | 46 | 930.4 |
| 20260509032736 | 12 | 42 | 0.0 | 0.0 | 0.00 | 0.00 | 0.00 | 47 | 930.3 |
| 20260509032233 | 13 | 42 | 0.0 | 0.0 | 0.00 | 0.00 | 0.00 | 46 | 930.3 |
| 20260509031731 | 13 | 41 | 0.0 | 0.0 | 0.00 | 0.00 | 0.00 | 44 | 930.1 |
| 20260509031228 | 13 | 325 | 0.0 | 8.0 | 0.00 | 0.00 | 0.00 | 44 | 930.1 |
| 20260509030726 | 13 | 350 | 0.0 | 0.0 | 0.00 | 0.00 | 0.00 | 45 | 930.2 |
| 20260509030223 | 13 | 247 | 0.0 | 1.6 | 0.00 | 0.00 | 0.00 | 44 | 930.0 |
| 20260509025720 | 14 | 44 | 0.0 | 0.0 | 0.00 | 0.00 | 0.00 | 43 | 930.0 |
| 20260509025216 | 15 | 20 | 0.0 | 0.0 | 0.00 | 0.00 | 0.00 | 42 | 929.9 |
| 20260509024711 | 15 | 346 | 0.0 | 0.0 | 0.00 | 0.00 | 0.00 | 41 | 929.9 |
| 20260509024207 | 15 | 15 | 0.0 | 0.0 | 0.00 | 0.00 | 0.00 | 41 | 929.6 |
| 20260509023705 | 15 | 29 | 0.0 | 0.0 | 0.00 | 0.00 | 0.00 | 40 | 929.9 |
| 20260509023202 | 16 | 23 | 0.0 | 0.0 | 0.00 | 0.00 | 0.00 | 39 | 930.0 |
| 20260509022657 | 16 | 10 | 0.0 | 0.0 | 0.00 | 0.00 | 0.00 | 38 | 930.0 |
| 20260509022156 | 16 | 263 | 4.8 | 4.8 | 0.00 | 0.00 | 0.00 | 37 | 930.0 |
| 20260509021652 | 16 | 337 | 0.0 | 0.0 | 0.00 | 0.00 | 0.00 | 36 | 929.9 |
| 20260509021149 | 17 | 1 | 3.2 | 4.8 | 0.00 | 0.00 | 0.00 | 35 | 930.0 |
| 20260509020648 | 17 | 302 | 0.0 | 1.6 | 0.00 | 0.00 | 0.00 | 35 | 929.9 |
| 20260509020144 | 17 | 3 | 0.0 | 3.2 | 0.00 | 0.00 | 0.00 | 36 | 929.7 |
| 20260509015643 | 17 | 330 | 0.0 | 8.0 | 0.00 | 0.00 | 0.00 | 34 | 930.0 |
| 20260509015140 | 17 | 308 | 8.0 | 12.9 | 0.00 | 0.00 | 0.00 | 34 | 929.7 |
| 20260509014637 | 18 | 297 | 1.6 | 11.3 | 0.00 | 0.00 | 0.00 | 33 | 929.5 |
| 20260509014133 | 18 | 355 | 4.8 | 12.9 | 0.00 | 0.00 | 0.00 | 32 | 929.9 |
| 20260509013630 | 18 | 329 | 1.6 | 14.5 | 0.00 | 0.00 | 0.00 | 32 | 930.0 |
| 20260509013126 | 18 | 308 | 4.8 | 12.9 | 0.00 | 0.00 | 0.00 | 31 | 930.1 |
| 20260509012623 | 18 | 351 | 0.0 | 11.3 | 0.00 | 0.00 | 0.00 | 31 | 930.1 |
| 20260509012119 | 18 | 324 | 6.4 | 12.9 | 0.00 | 0.00 | 0.00 | 31 | 930.2 |
| 20260509011618 | 18 | 305 | 14.5 | 20.9 | 0.00 | 0.00 | 0.00 | 30 | 930.2 |
| 20260509011114 | 19 | 314 | 9.7 | 12.9 | 0.00 | 0.00 | 0.00 | 30 | 930.3 |
| 20260509010612 | 19 | 326 | 6.4 | 16.1 | 0.00 | 0.00 | 0.00 | 30 | 930.3 |
| 20260509010108 | 19 | 335 | 8.0 | 20.9 | 0.00 | 0.00 | 0.00 | 30 | 930.5 |
| 20260509005606 | 20 | 310 | 11.3 | 17.7 | 0.00 | 0.00 | 0.00 | 30 | 930.3 |
| 20260509005101 | 20 | 41 | 0.0 | 3.2 | 0.00 | 0.00 | 0.00 | 31 | 930.4 |
| 20260509004558 | 18 | 12 | 0.0 | 12.9 | 0.00 | 0.00 | 0.00 | 31 | 930.2 |
| 20260509004055 | 19 | 318 | 1.6 | 12.9 | 0.00 | 0.00 | 0.00 | 31 | 930.2 |
| 20260509003554 | 19 | 0 | 0.0 | 12.9 | 0.00 | 0.00 | 0.00 | 32 | 930.3 |
| 20260509003051 | 20 | 293 | 6.4 | 14.5 | 0.00 | 0.00 | 0.00 | 31 | 930.4 |
| 20260509002548 | 19 | 343 | 8.0 | 9.7 | 0.00 | 0.00 | 0.00 | 31 | 930.1 |
| 20260509002045 | 19 | 302 | 6.4 | 29.0 | 0.00 | 0.00 | 0.00 | 31 | 930.3 |
| 20260509001542 | 20 | 312 | 14.5 | 25.7 | 0.00 | 0.00 | 0.00 | 30 | 930.9 |
| 20260509001038 | 19 | 299 | 4.8 | 16.1 | 0.00 | 0.00 | 0.00 | 31 | 930.9 |
| 20260509000537 | 19 | 333 | 16.1 | 25.7 | 0.00 | 0.00 | 0.00 | 31 | 930.5 |
| 20260509000033 | 19 | 6 | 17.7 | 20.9 | 0.00 | 0.00 | 0.00 | 31 | 930.8 |
| 20260508235531 | 19 | 337 | 11.3 | 17.7 | 0.00 | 0.00 | 0.00 | 31 | 930.5 |
| 20260508235026 | 18 | 355 | 11.3 | 20.9 | 0.00 | 0.00 | 0.00 | 33 | 930.5 |
| 20260508234524 | 19 | 299 | 6.4 | 16.1 | 0.00 | 0.00 | 0.00 | 31 | 930.4 |
| 20260508234021 | 19 | 302 | 3.2 | 22.5 | 0.00 | 0.00 | 0.00 | 32 | 930.7 |
| 20260508233520 | 18 | 357 | 14.5 | 22.5 | 0.00 | 0.00 | 0.00 | 32 | 930.3 |
| 20260508233017 | 19 | 271 | 8.0 | 12.9 | 0.00 | 0.00 | 0.00 | 31 | 930.4 |
| 20260508232514 | 20 | 238 | 6.4 | 11.3 | 0.00 | 0.00 | 0.00 | 30 | 930.4 |
| 20260508232011 | 20 | 328 | 17.7 | 22.5 | 0.00 | 0.00 | 0.00 | 30 | 930.4 |
| 20260508231508 | 20 | 224 | 1.6 | 20.9 | 0.00 | 0.00 | 0.00 | 30 | 930.4 |
| 20260508231005 | 20 | 275 | 8.0 | 32.2 | 0.00 | 0.00 | 0.00 | 30 | 930.3 |
| 20260508230502 | 20 | 255 | 8.0 | 14.5 | 0.00 | 0.00 | 0.00 | 30 | 930.5 |
| 20260508225958 | 20 | 301 | 4.8 | 16.1 | 0.00 | 0.00 | 0.00 | 30 | 930.3 |
| 20260508225456 | 20 | 230 | 16.1 | 22.5 | 0.00 | 0.00 | 0.00 | 29 | 930.4 |
| 20260508224953 | 20 | 293 | 6.4 | 27.4 | 0.00 | 0.00 | 0.00 | 29 | 930.2 |
| 20260508224450 | 20 | 326 | 9.7 | 16.1 | 0.00 | 0.00 | 0.00 | 29 | 930.2 |
| 20260508223947 | 20 | 282 | 9.7 | 32.2 | 0.00 | 0.00 | 0.00 | 30 | 930.3 |
| 20260508223445 | 20 | 356 | 12.9 | 20.9 | 0.00 | 0.00 | 0.00 | 28 | 930.3 |
| 20260508222942 | 20 | 337 | 9.7 | 27.4 | 0.00 | 0.00 | 0.00 | 29 | 930.4 |
| 20260508222440 | 20 | 301 | 9.7 | 33.8 | 0.00 | 0.00 | 0.00 | 30 | 930.1 |
| 20260508221936 | 20 | 242 | 11.3 | 24.1 | 0.00 | 0.00 | 0.00 | 28 | 930.2 |
| 20260508221432 | 20 | 288 | 9.7 | 17.7 | 0.00 | 0.00 | 0.00 | 29 | 930.4 |
| 20260508220928 | 21 | 298 | 1.6 | 25.7 | 0.00 | 0.00 | 0.00 | 30 | 930.4 |
| 20260508220425 | 20 | 249 | 3.2 | 16.1 | 0.00 | 0.00 | 0.00 | 30 | 930.7 |
| 20260508215921 | 21 | 274 | 6.4 | 20.9 | 0.00 | 0.00 | 0.00 | 30 | 930.4 |
| 20260508215418 | 20 | 290 | 24.1 | 33.8 | 0.00 | 0.00 | 0.00 | 31 | 930.4 |
| 20260508214915 | 21 | 290 | 14.5 | 17.7 | 0.00 | 0.00 | 0.00 | 31 | 930.7 |
| 20260508214413 | 20 | 314 | 8.0 | 25.7 | 0.00 | 0.00 | 0.00 | 30 | 930.5 |
| 20260508213908 | 20 | 281 | 12.9 | 22.5 | 0.00 | 0.00 | 0.00 | 29 | 930.5 |
| 20260508213406 | 20 | 245 | 11.3 | 20.9 | 0.00 | 0.00 | 0.00 | 29 | 930.7 |
| 20260508212901 | 20 | 247 | 12.9 | 17.7 | 0.00 | 0.00 | 0.00 | 30 | 930.4 |
| 20260508212358 | 20 | 281 | 8.0 | 25.7 | 0.00 | 0.00 | 0.00 | 30 | 930.5 |
| 20260508211854 | 20 | 290 | 17.7 | 27.4 | 0.00 | 0.00 | 0.00 | 29 | 930.8 |
| 20260508211350 | 20 | 218 | 3.2 | 14.5 | 0.00 | 0.00 | 0.00 | 29 | 930.3 |
| 20260508210847 | 20 | 308 | 20.9 | 29.0 | 0.00 | 0.00 | 0.00 | 29 | 930.7 |
| 20260508210344 | 20 | 236 | 14.5 | 20.9 | 0.00 | 0.00 | 0.00 | 29 | 930.7 |
| 20260508205840 | 20 | 316 | 11.3 | 29.0 | 0.00 | 0.00 | 0.00 | 28 | 930.8 |
| 20260508205337 | 20 | 265 | 11.3 | 20.9 | 0.00 | 0.00 | 0.00 | 27 | 930.4 |
| 20260508204833 | 20 | 314 | 16.1 | 20.9 | 0.00 | 0.00 | 0.00 | 28 | 930.7 |
| 20260508204330 | 20 | 302 | 11.3 | 16.1 | 0.00 | 0.00 | 0.00 | 29 | 930.4 |
| 20260508203826 | 20 | 354 | 8.0 | 17.7 | 0.00 | 0.00 | 0.00 | 30 | 930.9 |
| 20260508203323 | 19 | 248 | 17.7 | 24.1 | 0.00 | 0.00 | 0.00 | 29 | 930.7 |
| 20260508202819 | 20 | 318 | 16.1 | 25.7 | 0.00 | 0.00 | 0.00 | 29 | 930.9 |
| 20260508202316 | 20 | 342 | 11.3 | 20.9 | 0.00 | 0.00 | 0.00 | 29 | 930.8 |
| 20260508201813 | 19 | 253 | 16.1 | 25.7 | 0.00 | 0.00 | 0.00 | 29 | 930.8 |
| 20260508201310 | 20 | 272 | 14.5 | 17.7 | 0.00 | 0.00 | 0.00 | 29 | 930.7 |
| 20260508200806 | 20 | 283 | 11.3 | 29.0 | 0.00 | 0.00 | 0.00 | 29 | 930.8 |
| 20260508200303 | 20 | 293 | 9.7 | 20.9 | 0.00 | 0.00 | 0.00 | 29 | 930.8 |
| 20260508195759 | 18 | 284 | 8.0 | 17.7 | 0.00 | 0.00 | 0.00 | 30 | 930.8 |
| 20260508195255 | 19 | 284 | 17.7 | 24.1 | 0.00 | 0.00 | 0.00 | 30 | 930.8 |
| 20260508194752 | 19 | 4 | 11.3 | 20.9 | 0.00 | 0.00 | 0.00 | 31 | 930.8 |
| 20260508194249 | 19 | 272 | 4.8 | 16.1 | 0.00 | 0.00 | 0.00 | 30 | 931.0 |
| 20260508193746 | 19 | 330 | 6.4 | 22.5 | 0.00 | 0.00 | 0.00 | 31 | 931.0 |
| 20260508193243 | 19 | 246 | 14.5 | 29.0 | 0.00 | 0.00 | 0.00 | 30 | 930.8 |
| 20260508192739 | 19 | 293 | 11.3 | 20.9 | 0.00 | 0.00 | 0.00 | 30 | 931.0 |
| 20260508192236 | 18 | 325 | 14.5 | 20.9 | 0.00 | 0.00 | 0.00 | 31 | 931.0 |
| 20260508191734 | 19 | 337 | 11.3 | 27.4 | 0.00 | 0.00 | 0.00 | 31 | 931.0 |
| 20260508191231 | 19 | 253 | 14.5 | 20.9 | 0.00 | 0.00 | 0.00 | 29 | 931.1 |
| 20260508190728 | 19 | 335 | 11.3 | 16.1 | 0.00 | 0.00 | 0.00 | 29 | 931.0 |
| 20260508190224 | 18 | 261 | 11.3 | 17.7 | 0.00 | 0.00 | 0.00 | 30 | 930.9 |
| 20260508185721 | 18 | 258 | 1.6 | 27.4 | 0.00 | 0.00 | 0.00 | 30 | 931.0 |
| 20260508185218 | 19 | 188 | 8.0 | 22.5 | 0.00 | 0.00 | 0.00 | 30 | 931.1 |
| 20260508184715 | 18 | 265 | 11.3 | 27.4 | 0.00 | 0.00 | 0.00 | 30 | 931.0 |
| 20260508184212 | 18 | 314 | 14.5 | 20.9 | 0.00 | 0.00 | 0.00 | 31 | 931.2 |
| 20260508183709 | 18 | 247 | 8.0 | 14.5 | 0.00 | 0.00 | 0.00 | 30 | 931.2 |
| 20260508183205 | 18 | 255 | 6.4 | 17.7 | 0.00 | 0.00 | 0.00 | 33 | 931.2 |
| 20260508182701 | 18 | 331 | 6.4 | 22.5 | 0.00 | 0.00 | 0.00 | 31 | 931.1 |
| 20260508182158 | 18 | 243 | 8.0 | 14.5 | 0.00 | 0.00 | 0.00 | 31 | 931.3 |
| 20260508181654 | 18 | 247 | 12.9 | 20.9 | 0.00 | 0.00 | 0.00 | 30 | 931.1 |
| 20260508181151 | 18 | 245 | 9.7 | 20.9 | 0.00 | 0.00 | 0.00 | 30 | 931.3 |
| 20260508180647 | 18 | 304 | 9.7 | 17.7 | 0.00 | 0.00 | 0.00 | 31 | 931.2 |
| 20260508180144 | 18 | 297 | 16.1 | 27.4 | 0.00 | 0.00 | 0.00 | 29 | 931.2 |
| 20260508175641 | 18 | 311 | 11.3 | 16.1 | 0.00 | 0.00 | 0.00 | 29 | 931.2 |
| 20260508175138 | 18 | 52 | 12.9 | 24.1 | 0.00 | 0.00 | 0.00 | 30 | 931.6 |
| 20260508174635 | 17 | 289 | 11.3 | 27.4 | 0.00 | 0.00 | 0.00 | 31 | 931.2 |
| 20260508174132 | 18 | 271 | 17.7 | 24.1 | 0.00 | 0.00 | 0.00 | 30 | 931.6 |
| 20260508173629 | 18 | 254 | 9.7 | 12.9 | 0.00 | 0.00 | 0.00 | 30 | 931.3 |
| 20260508173125 | 17 | 317 | 9.7 | 20.9 | 0.00 | 0.00 | 0.00 | 31 | 931.5 |
| 20260508172622 | 17 | 273 | 9.7 | 17.7 | 0.00 | 0.00 | 0.00 | 31 | 931.9 |
| 20260508172119 | 18 | 253 | 9.7 | 22.5 | 0.00 | 0.00 | 0.00 | 31 | 931.7 |
| 20260508171615 | 18 | 281 | 11.3 | 20.9 | 0.00 | 0.00 | 0.00 | 30 | 931.6 |
| 20260508171112 | 17 | 254 | 12.9 | 16.1 | 0.00 | 0.00 | 0.00 | 30 | 931.5 |
| 20260508170609 | 17 | 316 | 9.7 | 20.9 | 0.00 | 0.00 | 0.00 | 30 | 931.7 |
| 20260508170107 | 17 | 350 | 6.4 | 14.5 | 0.00 | 0.00 | 0.00 | 31 | 931.6 |
| 20260508165603 | 17 | 306 | 8.0 | 22.5 | 0.00 | 0.00 | 0.00 | 33 | 931.5 |
| 20260508165100 | 17 | 278 | 6.4 | 9.7 | 0.00 | 0.00 | 0.00 | 31 | 931.8 |
| 20260508164556 | 17 | 257 | 6.4 | 16.1 | 0.00 | 0.00 | 0.00 | 32 | 931.8 |
| 20260508164053 | 17 | 354 | 11.3 | 16.1 | 0.00 | 0.00 | 0.00 | 33 | 931.7 |
| 20260508163551 | 17 | 257 | 1.6 | 20.9 | 0.00 | 0.00 | 0.00 | 33 | 931.6 |
| 20260508163048 | 17 | 358 | 1.6 | 14.5 | 0.00 | 0.00 | 0.00 | 31 | 931.8 |
| 20260508162544 | 17 | 191 | 8.0 | 11.3 | 0.00 | 0.00 | 0.00 | 31 | 931.3 |
| 20260508162042 | 17 | 343 | 12.9 | 17.7 | 0.00 | 0.00 | 0.00 | 32 | 931.6 |
| 20260508161538 | 16 | 232 | 6.4 | 20.9 | 0.00 | 0.00 | 0.00 | 33 | 931.6 |
| 20260508161036 | 16 | 269 | 14.5 | 20.9 | 0.00 | 0.00 | 0.00 | 33 | 931.5 |
| 20260508160534 | 16 | 261 | 4.8 | 17.7 | 0.00 | 0.00 | 0.00 | 33 | 931.3 |
| 20260508160031 | 16 | 270 | 6.4 | 14.5 | 0.00 | 0.00 | 0.00 | 35 | 931.5 |
| 20260508155528 | 16 | 269 | 11.3 | 22.5 | 0.00 | 0.00 | 0.00 | 33 | 931.7 |
| 20260508155025 | 16 | 332 | 3.2 | 11.3 | 0.00 | 0.00 | 0.00 | 34 | 931.6 |
| 20260508154522 | 15 | 323 | 11.3 | 17.7 | 0.00 | 0.00 | 0.00 | 34 | 931.7 |